This is the latest recevied weather packets stored in our database for station/object KD9JJA. If no packets are shown the sender has not sent any weather packets the latest 10 day(s).
| Time | Temp. | Humidity | Pressure | Rain* | Wind** | Luminosity | Snow |
|---|---|---|---|---|---|---|---|
| 1777864211 | 15.56° C | 63% | 1013.2 hPa | 0 mm | - | 0 W/m² | - |
| 1777863909 | 15.56° C | 63% | 1013.2 hPa | 0 mm | - | 0 W/m² | - |
| 1777863605 | 15.56° C | 64% | 1013.1 hPa | 0 mm | - | 0 W/m² | - |
| 1777863302 | 15.56° C | 61% | 1013.3 hPa | 0 mm | - | 0 W/m² | - |
| 1777862999 | 15° C | 62% | 1013.4 hPa | 0 mm | - | 0 W/m² | - |
| 1777862695 | 15° C | 64% | 1013.4 hPa | 0 mm | - | 0 W/m² | - |
| 1777862393 | 15° C | 66% | 1013.5 hPa | 0 mm | - | 0 W/m² | - |
| 1777862089 | 15° C | 65% | 1013.2 hPa | 0 mm | - | 0 W/m² | - |
| 1777861785 | 15° C | 62% | 1013.2 hPa | 0 mm | - | 0 W/m² | - |
| 1777861481 | 15° C | 62% | 1013.3 hPa | 0 mm | - | 0 W/m² | - |
| 1777861178 | 15° C | 63% | 1013.2 hPa | 0 mm | - | 0 W/m² | - |
| 1777860875 | 15° C | 62% | 1013.2 hPa | 0 mm | - | 0 W/m² | - |
| 1777860572 | 15° C | 60% | 1013.1 hPa | 0 mm | - | 0 W/m² | - |
| 1777860269 | 15° C | 62% | 1013.3 hPa | 0 mm | - | 0 W/m² | - |
| 1777859966 | 15° C | 62% | 1013.1 hPa | 0 mm | - | 0 W/m² | - |
| 1777859661 | 15° C | 64% | 1013.2 hPa | 0 mm | - | 0 W/m² | - |
| 1777859358 | 15° C | 60% | 1013.3 hPa | 0 mm | - | 0 W/m² | - |
| 1777859054 | 15° C | 62% | 1013.4 hPa | 0 mm | - | 0 W/m² | - |
| 1777858751 | 15° C | 64% | 1013.3 hPa | 0 mm | - | 0 W/m² | - |
| 1777858450 | 15° C | 63% | 1013.4 hPa | 0 mm | - | 0 W/m² | - |
| 1777858145 | 15.56° C | 61% | 1013.2 hPa | 0 mm | - | 0 W/m² | - |
| 1777857843 | 15.56° C | 60% | 1013 hPa | 0 mm | - | 0 W/m² | - |
| 1777857540 | 16.11° C | 59% | 1013.2 hPa | 0 mm | - | 0 W/m² | - |
| 1777857237 | 16.11° C | 60% | 1013.1 hPa | 0 mm | - | 0 W/m² | - |
| 1777856933 | 16.11° C | 60% | 1013.2 hPa | 0 mm | - | 0 W/m² | - |
* Rain latest hour (hover to see other rain measurements)
** Current wind speed in m/s (hover to see current wind gust speed)